When you browse on this site, cookies collect data to enhance your experience and personalize the content and advertising you see.
Visit our Privacy Policy to learn more. By continuing to use the site, you agree to this use of cookies and data.
  • In Hungary
  • List of Countries
  • For 7 days
  • Water Temperature
  • Satellite Maps
  • Weather Map
  • News
  • Weather Widgets
  • user-avatar
    Login

    Hourly Weather Birmingham

    Today, 16 January, Wednesday

    Time Temperature Precipitation Wind Pressure Humidity
    00:00 +6°C° 0 mm 4 mps 744 mmHg 92%
    01:00 +6°C° 0.1 mm 5 mps 743 mmHg 91%
    02:00 +7°C° 0.1 mm 5 mps 743 mmHg 90%
    03:00 +7°C° 0.1 mm 6 mps 742 mmHg 89%
    04:00 +7°C° 0.1 mm 6 mps 741 mmHg 89%
    05:00 +7°C° 0.1 mm 6 mps 741 mmHg 89%
    06:00 +7°C° 0 mm 5 mps 740 mmHg 88%
    07:00 +7°C° 0 mm 5 mps 740 mmHg 88%
    08:00 +6°C° 0 mm 5 mps 739 mmHg 88%
    09:00 +6°C° 0 mm 5 mps 739 mmHg 88%
    10:00 +6°C° 0.3 mm 5 mps 739 mmHg 87%
    11:00 +7°C° 0.3 mm 6 mps 738 mmHg 86%
    12:00 +7°C° 0.3 mm 6 mps 738 mmHg 84%
    13:00 +7°C° 0.4 mm 5 mps 738 mmHg 82%
    14:00 +6°C° 0.4 mm 4 mps 738 mmHg 79%
    15:00 +6°C° 0.4 mm 4 mps 737 mmHg 77%
    16:00 +5°C° 0 mm 4 mps 737 mmHg 78%
    17:00 +4°C° 0 mm 4 mps 737 mmHg 79%
    18:00 +3°C° 0 mm 3 mps 737 mmHg 80%
    19:00 +3°C° 0 mm 3 mps 737 mmHg 81%
    20:00 +3°C° 0 mm 4 mps 738 mmHg 83%
    21:00 +1°C° 0 mm 4 mps 738 mmHg 85%
    22:00 +1°C° 0 mm 4 mps 738 mmHg 85%
    23:00 +2°C° 0 mm 3 mps 738 mmHg 86%

    Tomorrow, 17 January, Thursday

    Time Temperature Precipitation Wind Pressure Humidity
    00:00 +2°C° 0 mm 3 mps 739 mmHg 86%
    01:00 +1°C° 0 mm 4 mps 739 mmHg 85%
    02:00 +1°C° 0 mm 4 mps 740 mmHg 84%
    03:00 0°C° 0 mm 4 mps 741 mmHg 83%
    04:00 0°C° 0 mm 4 mps 742 mmHg 83%
    05:00 0°C° 0 mm 4 mps 743 mmHg 82%
    06:00 0°C° 0 mm 5 mps 744 mmHg 82%
    07:00 -1°C° 0 mm 4 mps 745 mmHg 77%
    08:00 -1°C° 0 mm 4 mps 746 mmHg 72%
    09:00 -2°C° 0 mm 4 mps 747 mmHg 67%
    10:00 -1°C° 0 mm 4 mps 748 mmHg 63%
    11:00 0°C° 0 mm 4 mps 748 mmHg 58%
    12:00 0°C° 0 mm 4 mps 749 mmHg 54%
    13:00 +1°C° 0 mm 4 mps 749 mmHg 55%
    14:00 +2°C° 0 mm 3 mps 749 mmHg 57%
    15:00 +3°C° 0 mm 2 mps 749 mmHg 58%
    16:00 +2°C° 0 mm 2 mps 750 mmHg 61%
    17:00 +1°C° 0 mm 2 mps 750 mmHg 64%
    18:00 +2°C° 0 mm 1 mps 751 mmHg 67%
    19:00 +2°C° 0 mm 1 mps 751 mmHg 68%
    20:00 +1°C° 0 mm 1 mps 751 mmHg 69%
    21:00 +1°C° 0 mm 1 mps 751 mmHg 70%
    22:00 +1°C° 0 mm 1 mps 751 mmHg 70%
    23:00 +1°C° 0 mm 1 mps 751 mmHg 70%

    Day after tomorrow, 18 January, Friday

    Time Temperature Precipitation Wind Pressure Humidity
    00:00 -1°C° 0 mm 2 mps 751 mmHg 70%
    01:00 -1°C° 0 mm 2 mps 750 mmHg 71%
    02:00 -1°C° 0 mm 2 mps 750 mmHg 71%
    03:00 -1°C° 0 mm 3 mps 750 mmHg 72%
    04:00 -2°C° 0 mm 3 mps 749 mmHg 70%
    05:00 -2°C° 0 mm 3 mps 748 mmHg 68%
    06:00 -3°C° 0 mm 4 mps 748 mmHg 67%
    07:00 -2°C° 0 mm 4 mps 747 mmHg 68%
    08:00 -2°C° 0 mm 5 mps 747 mmHg 70%
    09:00 -1°C° 0 mm 5 mps 746 mmHg 71%
    10:00 -1°C° 0.1 mm 6 mps 746 mmHg 71%
    11:00 +1°C° 0.1 mm 6 mps 745 mmHg 70%
    12:00 +2°C° 0.1 mm 6 mps 745 mmHg 69%
    13:00 +3°C° 0.2 mm 7 mps 744 mmHg 73%
    14:00 +3°C° 0.2 mm 7 mps 743 mmHg 78%
    15:00 +3°C° 0.2 mm 7 mps 743 mmHg 82%
    16:00 +3°C° 1.6 mm 7 mps 742 mmHg 85%
    17:00 +2°C° 1.6 mm 7 mps 742 mmHg 87%
    18:00 +2°C° 1.6 mm 6 mps 742 mmHg 90%
    19:00 +2°C° 1 mm 6 mps 742 mmHg 91%
    20:00 +3°C° 1 mm 5 mps 741 mmHg 92%
    21:00 +4°C° 1 mm 4 mps 741 mmHg 93%
    22:00 +3°C° 0.2 mm 4 mps 741 mmHg 95%
    23:00 +3°C° 0.2 mm 3 mps 741 mmHg 96%

    19 January, Saturday

    Time Temperature Precipitation Wind Pressure Humidity
    00:00 +4°C° 0.2 mm 2 mps 740 mmHg 97%
    01:00 +4°C° 0 mm 2 mps 740 mmHg 97%
    02:00 +3°C° 0 mm 2 mps 740 mmHg 97%
    03:00 +3°C° 0 mm 1 mps 739 mmHg 96%
    04:00 +3°C° 0 mm 1 mps 739 mmHg 96%
    05:00 +3°C° 0 mm 1 mps 739 mmHg 95%
    06:00 +3°C° 0 mm 1 mps 739 mmHg 95%
    07:00 +3°C° 0 mm 1 mps 739 mmHg 95%
    08:00 +3°C° 0 mm 1 mps 739 mmHg 95%
    09:00 +3°C° 0 mm 1 mps 739 mmHg 95%
    10:00 +4°C° 0 mm 1 mps 739 mmHg 92%
    11:00 +4°C° 0 mm 0 mps 740 mmHg 89%
    12:00 +5°C° 0 mm 0 mps 740 mmHg 86%
    13:00 +5°C° 0 mm 0 mps 740 mmHg 86%
    14:00 +6°C° 0 mm 0 mps 740 mmHg 86%
    15:00 +6°C° 0 mm 0 mps 740 mmHg 87%
    16:00 +5°C° 0 mm 0 mps 740 mmHg 89%
    17:00 +5°C° 0 mm 1 mps 740 mmHg 91%
    18:00 +4°C° 0 mm 1 mps 741 mmHg 94%
    19:00 +4°C° 0 mm 1 mps 741 mmHg 94%
    20:00 +3°C° 0 mm 1 mps 742 mmHg 94%
    21:00 +3°C° 0 mm 1 mps 742 mmHg 95%
    22:00 +3°C° 0 mm 1 mps 742 mmHg 94%
    23:00 +3°C° 0 mm 1 mps 743 mmHg 93%

    20 January, Sunday

    Time Temperature Precipitation Wind Pressure Humidity
    00:00 +3°C° 0 mm 1 mps 743 mmHg 92%
    01:00 +2°C° 0 mm 2 mps 744 mmHg 92%
    02:00 +2°C° 0 mm 2 mps 744 mmHg 91%
    03:00 +2°C° 0 mm 2 mps 744 mmHg 90%
    04:00 +2°C° 0 mm 2 mps 745 mmHg 90%
    05:00 +1°C° 0 mm 2 mps 745 mmHg 91%
    06:00 +1°C° 0 mm 2 mps 746 mmHg 91%
    07:00 +1°C° 0 mm 2 mps 747 mmHg 91%
    08:00 +1°C° 0 mm 2 mps 747 mmHg 91%
    09:00 +1°C° 0 mm 2 mps 748 mmHg 91%
    10:00 +1°C° 0 mm 3 mps 749 mmHg 89%
    11:00 +2°C° 0 mm 3 mps 749 mmHg 87%
    12:00 +3°C° 0 mm 3 mps 750 mmHg 86%
    13:00 +3°C° 0 mm 4 mps 750 mmHg 85%
    14:00 +4°C° 0 mm 4 mps 750 mmHg 84%
    15:00 +4°C° 0 mm 4 mps 751 mmHg 84%
    16:00 +3°C° 0 mm 3 mps 751 mmHg 86%
    17:00 +2°C° 0 mm 3 mps 752 mmHg 89%
    18:00 +1°C° 0 mm 3 mps 752 mmHg 91%
    19:00 +1°C° 0 mm 3 mps 753 mmHg 91%
    20:00 +1°C° 0 mm 3 mps 754 mmHg 91%
    21:00 +1°C° 0 mm 3 mps 755 mmHg 91%
    22:00 0°C° 0 mm 3 mps 755 mmHg 91%
    23:00 0°C° 0 mm 3 mps 755 mmHg 91%

    21 January, Monday

    Time Temperature Precipitation Wind Pressure Humidity
    00:00 0°C° 0 mm 3 mps 756 mmHg 91%
    01:00 0°C° 0 mm 3 mps 756 mmHg 91%
    02:00 -1°C° 0 mm 3 mps 756 mmHg 91%
    03:00 -1°C° 0 mm 3 mps 756 mmHg 92%
    04:00 -1°C° 0 mm 3 mps 757 mmHg 91%
    05:00 -1°C° 0 mm 3 mps 757 mmHg 91%
    06:00 -1°C° 0 mm 3 mps 757 mmHg 90%
    07:00 -1°C° 0 mm 3 mps 757 mmHg 90%
    08:00 -1°C° 0 mm 2 mps 758 mmHg 89%
    09:00 -1°C° 0 mm 2 mps 758 mmHg 88%
    10:00 +1°C° 0 mm 2 mps 758 mmHg 84%
    11:00 +2°C° 0 mm 2 mps 758 mmHg 80%
    12:00 +4°C° 0 mm 1 mps 758 mmHg 76%
    13:00 +4°C° 0 mm 1 mps 757 mmHg 77%
    14:00 +4°C° 0 mm 1 mps 757 mmHg 78%
    15:00 +4°C° 0 mm 1 mps 756 mmHg 79%
    16:00 +3°C° 0 mm 2 mps 756 mmHg 81%
    17:00 +2°C° 0 mm 2 mps 755 mmHg 83%
    18:00 +1°C° 0 mm 3 mps 755 mmHg 86%
    19:00 0°C° 0 mm 4 mps 754 mmHg 86%
    20:00 0°C° 0 mm 4 mps 753 mmHg 86%
    21:00 0°C° 0 mm 5 mps 752 mmHg 85%
    22:00 0°C° 0.3 mm 5 mps 751 mmHg 86%
    23:00 -1°C° 0.3 mm 6 mps 750 mmHg 86%
    Show more